Wind_Speed
21 24 27 29 29 29 27 26 25 23 22 21 20 20 21 21 21 20 18 18 18 18 18 18 18 18 18 17 15 14 14 14 13 11 11 11 11 11 11 12 12 13 14 15 16 16 17 18 18
21 22 24 27 29 29 28 28 27 25 23 21 20 20 21 22 22 22 21 20 19 19 19 19 19 19 19 18 16 15 15 15 13 12 11 11 12 12 13 13 13 13 15 15 16 17 18 18 19
23 24 25 25 25 27 29 30 30 28 26 24 22 22 22 22 22 22 22 22 21 20 20 19 19 19 19 18 17 16 16 15 14 13 12 12 12 13 13 14 14 13 13 13 14 15 16 17 19
26 26 27 25 22 23 29 32 32 30 28 26 24 23 23 23 23 23 23 23 23 23 23 23 22 21 20 19 18 17 16 15 15 15 14 13 13 13 13 14 15 15 14 14 15 16 16 18 19
28 29 29 26 21 22 27 32 33 32 31 29 27 25 25 25 24 24 25 25 25 25 26 27 27 25 23 20 19 17 17 16 16 16 15 14 14 14 13 14 15 15 14 14 15 16 17 18 19
30 30 30 26 22 23 27 31 33 34 32 31 30 28 26 26 25 25 25 26 26 26 26 27 28 27 24 22 20 18 17 17 17 17 17 16 15 14 13 14 14 14 13 12 13 14 15 16 18
31 31 30 27 25 26 28 31 31 33 34 34 32 30 29 28 27 27 26 27 26 26 26 26 27 27 25 22 21 20 19 18 18 19 19 18 17 16 16 15 14 14 14 14 15 17 18 20 22
31 31 30 26 25 27 30 32 32 31 34 35 35 34 33 31 30 29 28 28 27 26 26 27 27 26 25 23 21 21 21 20 20 20 21 21 20 19 19 18 17 17 17 18 19 20 22 24 25
31 31 28 24 25 29 32 35 35 33 33 35 36 37 36 35 34 32 31 30 29 27 28 28 28 28 27 25 23 22 21 20 21 22 23 23 23 23 22 22 21 21 20 20 21 22 23 24 24
31 29 24 24 27 31 35 38 38 36 35 35 37 38 38 38 37 35 34 32 31 29 28 29 30 30 29 28 26 24 22 21 22 23 24 25 26 27 26 25 25 24 23 23 23 24 24 24 22
29 26 24 26 28 31 35 39 40 40 37 35 36 37 37 38 38 37 36 35 33 32 30 31 32 32 31 30 29 27 25 24 23 24 25 27 29 29 29 28 28 28 27 26 25 25 26 25 23
28 25 25 26 27 29 33 37 40 41 37 36 36 36 35 35 36 38 38 37 35 33 32 32 34 35 34 33 32 30 28 27 26 26 27 29 30 30 30 30 30 30 29 28 27 27 28 27 25
29 25 24 24 25 27 29 33 38 40 38 37 36 35 34 33 33 35 38 38 36 35 34 34 34 36 37 36 35 34 32 30 28 28 29 30 31 31 30 31 30 30 29 29 29 29 29 29 28
28 25 24 23 23 25 28 32 36 35 38 39 37 34 33 32 32 33 35 37 37 37 36 35 34 35 36 37 37 36 35 33 32 31 30 31 31 31 30 30 30 30 30 30 30 30 31 31 30
29 26 24 23 24 25 27 30 33 33 39 40 39 36 34 32 32 32 32 36 38 38 37 36 35 35 35 36 36 36 36 36 34 33 32 32 32 31 30 30 30 31 31 31 30 31 32 32 31
29 27 25 25 25 26 27 27 31 34 38 40 41 40 37 35 33 32 33 36 39 40 39 38 37 36 36 36 36 36 37 37 36 35 33 32 32 31 30 30 31 31 31 31 31 32 33 33 32
29 28 27 26 26 26 27 27 28 33 37 40 42 43 42 39 37 34 34 36 39 42 42 42 40 39 39 38 36 36 37 38 37 36 34 33 33 33 32 32 32 32 32 32 32 33 33 33 33
30 30 29 28 28 29 30 30 29 32 35 39 42 44 45 44 41 39 37 38 39 42 42 43 43 43 43 41 39 38 38 39 38 37 35 34 35 34 34 34 34 33 33 33 33 33 33 34 35
30 30 30 31 32 34 34 36 35 35 36 37 41 45 48 48 46 44 42 40 41 42 42 41 43 44 45 44 42 41 40 40 39 37 35 35 35 36 36 36 35 34 34 35 34 34 34 36 38
30 31 33 35 37 39 40 41 40 39 38 39 41 45 48 50 51 49 47 44 43 43 43 41 42 44 45 45 44 43 42 41 39 37 35 35 36 37 38 37 36 36 37 37 36 37 38 39 41
31 34 37 40 42 44 46 47 45 45 43 43 43 44 47 49 51 52 51 47 44 44 44 43 42 43 44 45 44 43 42 40 37 36 36 36 36 38 38 38 38 39 39 39 39 40 42 43 44
35 38 41 45 48 49 51 55 52 51 48 46 46 47 47 48 49 51 52 50 46 44 45 43 43 43 44 43 42 41 41 38 37 36 36 36 36 37 38 39 40 42 42 42 42 44 45 46 47
40 43 47 50 53 56 56 61 60 58 55 52 50 50 50 49 49 50 52 52 49 46 45 44 44 44 43 42 40 40 40 37 36 36 36 37 37 38 39 40 42 43 44 44 45 46 47 49 50
43 47 50 53 56 60 58 62 62 60 60 57 56 54 53 52 50 50 51 53 51 49 46 44 44 44 43 41 39 39 39 37 36 36 37 38 39 40 40 41 43 44 45 46 47 48 49 50 51
44 47 51 54 56 58 58 61 60 58 61 62 60 59 56 54 53 50 51 52 52 49 46 44 44 43 42 41 39 39 39 38 37 37 38 39 40 41 42 43 44 46 47 47 48 48 50 51 51
41 44 46 50 54 55 56 57 54 54 58 61 62 62 59 56 54 52 50 51 51 49 45 43 43 43 43 41 40 40 40 38 37 37 38 39 40 41 42 43 45 46 47 47 48 49 51 51 51
40 43 45 49 51 53 53 51 46 43 50 54 57 59 58 56 54 52 50 50 50 49 45 43 43 43 43 41 40 40 40 38 37 37 37 39 40 41 42 43 44 45 46 47 48 49 51 51 52
40 42 43 44 46 48 47 43 38 33 37 40 45 49 53 53 53 52 50 49 49 48 46 45 44 44 44 42 41 40 40 38 37 36 37 38 39 41 42 42 43 44 45 47 48 50 51 52 54
38 38 39 41 43 45 44 38 33 29 31 32 33 37 44 48 51 51 50 48 47 46 46 45 44 44 44 42 41 40 39 38 37 36 37 38 39 40 41 42 43 44 46 48 49 50 51 54 57
34 34 35 38 39 41 42 33 28 27 28 28 28 31 36 43 47 49 48 46 45 44 44 44 44 44 44 42 40 40 39 38 37 37 37 38 39 40 41 42 43 45 47 48 49 51 54 57 60
Wind_Direction
246 247 247 246 244 242 242 243 244 245 245 246 247 247 248 248 247 247 244 243 247 251 252 252 253 256 259 262 266 267 271 273 270 262 257 255 251 246 245 248 251 256 259 261 263 266 269 271 273
247 248 249 249 247 244 243 243 242 243 243 244 245 246 247 247 246 247 245 244 245 248 251 253 253 254 257 260 263 267 271 272 269 263 261 261 257 253 251 253 255 256 257 258 261 264 267 269 271
249 249 250 251 250 247 244 242 241 241 240 240 242 243 246 247 248 248 248 248 249 252 256 258 258 256 255 257 259 263 267 268 266 262 261 261 259 257 257 258 258 256 257 258 261 264 267 270 272
250 251 252 251 251 248 244 242 241 240 238 237 238 241 243 245 245 246 249 252 254 259 263 264 263 259 256 255 258 260 261 261 260 259 258 258 258 257 259 261 260 258 258 259 262 265 268 272 276
251 253 254 252 248 246 244 241 240 239 237 235 235 238 243 246 246 246 248 251 254 257 260 263 264 262 259 257 256 256 256 254 253 255 256 256 257 255 256 259 258 257 258 261 265 269 274 278 281
253 255 256 253 244 241 242 242 239 238 238 237 235 236 240 245 248 249 251 253 255 257 260 262 264 264 263 261 258 254 252 251 250 251 253 255 257 256 254 256 256 256 258 262 267 272 277 280 283
252 255 256 251 240 238 242 245 243 240 240 239 238 237 238 240 243 247 250 253 255 257 259 260 261 262 262 262 260 257 254 253 251 250 249 250 253 254 252 250 251 254 259 265 272 279 285 287 287
251 254 254 251 241 237 241 246 246 243 242 242 241 239 238 239 241 243 246 249 252 255 257 256 254 255 257 259 260 260 258 256 254 252 249 248 249 251 251 250 251 255 262 271 279 287 292 293 292
249 252 255 251 240 234 237 244 246 245 244 244 244 242 241 241 242 242 244 247 249 252 253 251 248 248 250 253 257 259 260 259 257 257 254 251 249 249 250 252 254 258 265 274 283 290 295 297 298
248 252 253 245 236 232 234 241 247 247 245 246 247 247 244 243 243 244 245 247 248 249 251 249 246 246 248 251 253 257 260 262 261 260 259 257 254 252 252 254 257 260 266 273 281 288 293 297 298
245 248 245 241 237 234 233 239 246 249 248 249 250 251 250 247 244 245 247 248 249 248 248 248 245 244 246 249 252 255 259 263 265 263 261 260 259 257 255 256 259 262 266 272 278 284 290 293 293
242 242 240 239 238 236 235 239 245 251 252 252 253 254 255 253 249 245 246 248 250 251 250 249 246 243 244 246 250 254 257 261 265 265 263 261 261 260 259 258 260 262 265 270 276 282 287 289 288
239 238 238 238 238 237 238 240 244 249 252 254 255 255 256 255 252 247 245 247 249 250 250 250 249 248 246 247 250 254 257 260 263 265 266 264 262 261 261 260 260 261 265 269 275 279 285 287 285
237 237 237 238 238 238 238 240 245 246 250 252 252 253 253 253 252 249 245 245 248 248 248 249 250 251 252 253 255 257 259 261 262 264 266 267 266 264 261 259 259 261 264 268 273 277 283 285 284
236 238 239 239 239 239 243 245 247 244 248 251 252 252 251 251 250 249 246 244 245 247 247 247 249 250 252 254 257 260 261 262 263 264 266 268 268 265 260 258 259 262 264 267 271 276 281 284 284
234 238 239 241 242 244 249 250 248 247 250 252 253 252 250 249 249 247 244 243 243 245 246 247 249 250 252 254 257 260 261 263 264 264 265 266 266 263 258 257 260 262 264 267 272 277 281 283 282
234 238 241 244 249 251 254 257 251 250 252 252 252 252 250 249 248 247 245 243 242 244 245 247 249 251 253 256 259 261 261 262 263 263 263 263 263 260 257 257 260 263 265 269 274 279 282 282 281
236 241 246 250 254 257 259 261 259 256 256 255 254 252 252 250 249 248 247 244 243 244 245 245 248 251 253 255 258 260 261 262 263 262 261 260 260 259 257 257 259 263 267 271 276 281 283 283 284
242 247 250 253 256 257 260 263 264 262 261 259 255 253 252 251 249 249 249 247 245 246 247 246 246 249 251 253 255 257 260 261 263 262 261 260 260 259 256 257 260 264 269 273 278 282 284 285 287
250 253 255 257 259 260 262 263 266 265 264 261 257 253 252 250 249 248 249 248 246 246 247 247 245 247 249 251 253 256 258 261 263 263 261 261 260 258 257 259 262 267 271 275 279 282 284 287 289
257 261 263 264 264 265 265 263 262 262 263 262 261 257 252 250 248 247 246 246 246 245 247 247 246 247 249 251 253 255 257 260 261 261 259 259 260 259 259 261 265 269 273 276 280 283 285 287 289
265 266 268 269 269 268 268 268 263 263 261 260 260 258 255 250 247 245 244 244 244 244 245 246 246 247 249 251 253 255 257 258 257 257 258 260 261 261 261 264 267 271 275 278 282 284 286 287 289
271 272 273 273 273 272 271 270 267 266 262 258 256 256 255 252 246 243 241 241 241 242 243 244 244 245 248 250 253 255 258 258 258 259 259 260 261 263 264 267 270 273 276 279 282 284 286 288 289
275 276 276 275 275 274 273 272 269 267 265 260 255 252 251 251 247 241 239 239 238 239 240 241 242 244 247 250 253 256 259 260 260 260 260 261 263 265 267 270 272 275 278 280 282 284 286 288 290
279 279 279 278 277 277 275 272 271 268 265 262 257 251 247 246 245 241 237 236 237 238 239 239 240 243 246 248 251 255 259 261 262 262 263 263 264 266 268 271 274 276 279 281 283 285 286 288 290
281 281 282 283 283 283 280 278 276 271 266 263 259 252 246 242 241 240 235 233 234 234 235 236 237 240 244 246 250 254 259 261 263 264 264 264 265 267 270 273 275 278 281 283 284 286 287 289 290
284 285 286 286 286 285 285 285 281 275 267 263 259 253 246 239 236 236 234 231 231 232 232 233 234 237 241 244 248 253 258 261 263 264 265 265 267 269 272 275 278 280 282 284 285 286 288 291 292
287 289 292 292 291 290 288 286 286 278 267 262 258 252 244 236 231 231 230 229 229 229 229 229 231 235 239 242 246 251 257 260 263 265 266 267 269 271 274 277 280 282 284 285 286 289 291 293 294
291 294 295 294 293 292 291 289 286 276 266 260 254 246 239 231 225 224 225 225 226 227 228 229 231 234 237 240 244 250 255 260 263 265 267 269 271 275 278 280 283 284 285 287 289 292 293 295 296
294 297 296 295 295 293 291 292 287 276 263 257 248 237 230 222 218 218 220 221 222 224 226 228 229 232 235 238 242 248 254 259 262 265 268 271 274 279 281 283 285 286 288 290 292 294 296 297 298
Height
5826 5827 5829 5831 5834 5836 5837 5839 5840 5841 5842 5843 5844 5845 5847 5848 5850 5853 5852 5851 5851 5851 5851 5851 5851 5852 5852 5853 5853 5853 5853 5852 5852 5851 5851 5851 5851 5851 5850 5849 5849 5849 5849 5849 5848 5848 5848 5848 5847
5822 5823 5825 5826 5828 5831 5834 5834 5835 5837 5839 5839 5840 5841 5842 5843 5845 5846 5847 5847 5847 5847 5847 5847 5848 5848 5848 5849 5849 5849 5849 5849 5849 5848 5848 5848 5848 5848 5848 5847 5847 5847 5847 5846 5846 5845 5845 5845 5844
5817 5818 5820 5821 5824 5827 5829 5829 5830 5832 5834 5835 5836 5837 5838 5839 5841 5842 5843 5844 5844 5844 5844 5844 5845 5845 5845 5845 5845 5846 5846 5846 5846 5845 5845 5845 5845 5845 5845 5845 5845 5844 5844 5843 5843 5843 5842 5842 5842
5812 5813 5815 5817 5820 5822 5822 5824 5825 5827 5829 5831 5831 5832 5833 5835 5837 5838 5839 5840 5841 5841 5841 5841 5841 5841 5841 5841 5842 5842 5842 5842 5842 5842 5843 5843 5842 5842 5842 5842 5841 5841 5841 5840 5840 5840 5839 5839 5838
5806 5807 5809 5812 5815 5816 5816 5817 5819 5821 5823 5825 5827 5827 5828 5830 5832 5833 5835 5836 5837 5837 5837 5837 5837 5837 5837 5837 5838 5838 5839 5839 5839 5839 5839 5840 5840 5839 5839 5838 5838 5837 5837 5837 5837 5837 5836 5836 5835
5800 5802 5804 5807 5810 5811 5810 5811 5813 5815 5817 5820 5822 5823 5824 5826 5828 5829 5830 5831 5832 5833 5833 5833 5833 5833 5833 5833 5834 5834 5835 5835 5835 5836 5836 5836 5836 5836 5835 5835 5835 5835 5835 5835 5835 5834 5833 5832 5831
5795 5796 5797 5801 5804 5805 5806 5806 5808 5810 5812 5814 5816 5819 5820 5821 5823 5824 5825 5826 5827 5828 5829 5829 5829 5829 5829 5830 5830 5830 5831 5831 5832 5832 5832 5832 5832 5832 5832 5832 5832 5832 5832 5832 5831 5830 5829 5828 5827
5788 5790 5791 5795 5799 5800 5801 5800 5803 5805 5806 5808 5811 5813 5814 5816 5817 5818 5820 5821 5822 5824 5824 5824 5824 5825 5825 5826 5826 5826 5826 5827 5828 5828 5828 5828 5828 5828 5829 5828 5828 5828 5828 5828 5827 5826 5824 5823 5821
5781 5784 5786 5790 5792 5794 5794 5794 5796 5799 5801 5802 5804 5807 5809 5811 5812 5813 5815 5816 5817 5819 5819 5819 5819 5820 5820 5821 5822 5822 5822 5822 5823 5823 5823 5823 5824 5824 5824 5825 5824 5824 5824 5823 5822 5821 5819 5818 5816
5775 5777 5781 5783 5785 5786 5787 5787 5788 5792 5795 5797 5798 5800 5803 5805 5807 5808 5810 5811 5812 5813 5814 5815 5815 5815 5816 5816 5817 5817 5818 5818 5818 5819 5819 5819 5819 5819 5820 5820 5820 5819 5819 5818 5817 5816 5814 5812 5811
5769 5771 5774 5775 5777 5779 5780 5781 5781 5784 5789 5792 5792 5793 5796 5799 5801 5803 5804 5805 5806 5808 5809 5810 5810 5810 5811 5812 5812 5813 5813 5813 5814 5814 5814 5813 5813 5814 5814 5814 5814 5814 5813 5812 5811 5810 5809 5807 5805
5763 5765 5766 5768 5770 5772 5774 5775 5775 5777 5782 5784 5786 5787 5789 5792 5795 5797 5798 5799 5801 5803 5803 5804 5804 5805 5806 5807 5807 5808 5808 5809 5809 5809 5808 5808 5808 5808 5808 5808 5808 5807 5807 5806 5805 5804 5803 5801 5800
5756 5758 5759 5761 5763 5765 5768 5769 5769 5770 5775 5776 5778 5781 5783 5785 5787 5789 5792 5794 5795 5797 5797 5798 5798 5799 5800 5801 5802 5803 5803 5804 5804 5803 5803 5802 5802 5803 5803 5802 5802 5801 5801 5800 5799 5798 5797 5795 5794
5749 5751 5753 5755 5756 5759 5760 5762 5761 5767 5768 5768 5771 5774 5776 5778 5780 5782 5784 5787 5788 5789 5790 5791 5792 5793 5794 5796 5796 5797 5798 5798 5798 5798 5797 5797 5797 5797 5797 5796 5795 5795 5794 5793 5793 5792 5790 5789 5787
5741 5744 5746 5748 5749 5751 5753 5755 5757 5761 5759 5760 5763 5766 5768 5770 5772 5775 5777 5779 5780 5782 5783 5784 5785 5786 5788 5789 5790 5790 5791 5792 5792 5792 5792 5792 5791 5791 5791 5790 5789 5788 5787 5786 5786 5785 5783 5781 5780
5734 5736 5739 5741 5742 5743 5747 5749 5751 5751 5752 5753 5755 5757 5760 5762 5765 5767 5769 5771 5772 5774 5776 5777 5778 5779 5780 5782 5782 5783 5784 5785 5785 5786 5786 5786 5785 5785 5784 5784 5783 5781 5781 5780 5779 5777 5776 5774 5772
5726 5729 5731 5733 5734 5735 5738 5741 5743 5743 5744 5745 5746 5748 5750 5753 5756 5759 5761 5763 5765 5766 5768 5770 5771 5772 5773 5774 5776 5777 5777 5778 5778 5779 5779 5779 5779 5778 5778 5777 5776 5775 5774 5773 5771 5770 5768 5766 5764
5719 5721 5723 5725 5726 5727 5729 5732 5734 5735 5736 5737 5737 5739 5740 5743 5747 5750 5752 5754 5756 5758 5760 5762 5764 5765 5766 5767 5768 5769 5770 5770 5771 5772 5772 5772 5772 5772 5771 5770 5769 5768 5767 5766 5764 5762 5760 5758 5756
5712 5713 5715 5716 5716 5717 5720 5723 5724 5725 5727 5728 5729 5729 5730 5733 5737 5739 5742 5745 5748 5749 5751 5754 5756 5757 5757 5759 5760 5761 5762 5762 5763 5764 5765 5765 5765 5765 5764 5763 5762 5761 5760 5759 5757 5755 5753 5751 5748
5703 5704 5705 5705 5705 5707 5711 5713 5715 5715 5717 5717 5718 5718 5719 5722 5725 5728 5731 5735 5738 5741 5742 5745 5747 5748 5749 5750 5752 5753 5754 5755 5756 5757 5758 5758 5758 5757 5756 5756 5755 5754 5753 5751 5750 5748 5746 5743 5740
5695 5696 5696 5695 5695 5696 5698 5702 5706 5705 5706 5706 5707 5707 5708 5710 5713 5716 5720 5724 5728 5731 5734 5736 5739 5740 5741 5742 5744 5746 5746 5747 5748 5749 5750 5750 5750 5750 5749 5749 5748 5746 5745 5743 5741 5739 5737 5735 5732
5687 5687 5685 5684 5683 5684 5686 5685 5694 5693 5695 5695 5694 5694 5695 5697 5700 5703 5707 5712 5717 5721 5724 5728 5730 5732 5733 5734 5736 5738 5739 5740 5741 5741 5742 5743 5742 5742 5742 5741 5740 5738 5737 5735 5732 5730 5727 5725 5722
5677 5676 5675 5672 5669 5670 5672 5667 5676 5676 5679 5680 5681 5680 5681 5683 5687 5691 5695 5700 5705 5709 5714 5718 5721 5723 5725 5727 5729 5730 5731 5732 5733 5734 5735 5735 5735 5734 5734 5732 5731 5730 5728 5725 5723 5720 5717 5714 5711
5666 5665 5662 5658 5654 5654 5658 5649 5655 5661 5660 5661 5663 5665 5666 5668 5673 5678 5682 5687 5692 5697 5702 5707 5711 5714 5717 5720 5722 5723 5724 5725 5725 5726 5727 5727 5727 5726 5725 5723 5722 5720 5718 5716 5713 5710 5707 5703 5700
5656 5653 5648 5643 5640 5639 5638 5631 5639 5644 5639 5639 5642 5645 5649 5654 5659 5665 5670 5675 5681 5687 5692 5698 5702 5705 5709 5712 5714 5715 5716 5717 5718 5719 5719 5719 5719 5717 5716 5714 5712 5711 5708 5706 5703 5699 5696 5692 5688
5645 5641 5637 5630 5625 5622 5617 5616 5624 5625 5619 5617 5619 5624 5631 5639 5645 5651 5657 5663 5670 5676 5682 5688 5692 5696 5700 5704 5707 5708 5709 5710 5711 5711 5711 5711 5710 5709 5707 5705 5703 5701 5698 5695 5692 5688 5684 5680 5677
5634 5629 5624 5617 5611 5605 5602 5602 5605 5606 5600 5597 5599 5604 5612 5622 5630 5638 5645 5652 5659 5666 5672 5678 5683 5687 5691 5695 5698 5700 5701 5702 5703 5703 5703 5702 5701 5700 5698 5696 5694 5691 5688 5685 5681 5677 5673 5669 5665
5624 5619 5613 5605 5598 5592 5589 5589 5590 5588 5583 5581 5582 5586 5594 5605 5615 5624 5633 5641 5649 5656 5662 5668 5673 5678 5682 5686 5690 5692 5694 5695 5695 5695 5695 5694 5693 5691 5689 5687 5684 5681 5678 5675 5671 5666 5662 5657 5653
5615 5610 5602 5595 5589 5582 5576 5579 5577 5574 5571 5569 5570 5573 5579 5590 5601 5611 5621 5630 5638 5646 5653 5660 5665 5669 5674 5678 5682 5685 5686 5687 5687 5687 5686 5685 5684 5682 5680 5678 5675 5672 5668 5664 5660 5656 5651 5646 5640
5607 5601 5594 5587 5579 5572 5565 5567 5566 5562 5560 5559 5561 5563 5567 5577 5588 5599 5610 5620 5629 5638 5645 5652 5657 5661 5666 5670 5674 5677 5679 5680 5679 5679 5678 5677 5676 5674 5671 5668 5665 5662 5658 5654 5649 5645 5639 5633 5626